Weather History for Dickinson, ND

Change the Weather History Date:

Monday, October 22, 2012

  Actual Average Record
Temperature  
Mean Temperature 40 °F 41 °F  
Max Temperature 44 °F 54 °F 81 °F (1963)
Min Temperature 36 °F 29 °F 3 °F (2002)
Degree Days  
Heating Degree Days 25 24  
Month to date heating degree days 443 423  
Since 1 July heating degree days 667 777  
Cooling Degree Days 0 0  
Month to date cooling degree days 0 0  
Year to date cooling degree days 591 418  
Moisture  
Dew Point 34 °F    
Average Humidity 81    
Maximum Humidity 92    
Minimum Humidity 70    
Precipitation  
Precipitation 0.19 in 0.04 in 0.57 in (1980)
Month to date precipitation 1.17 0.95  
Year to date precipitation 9.76 14.71  
Sea Level Pressure  
Sea Level Pressure 29.92 in    
Wind  
Wind Speed 14 mph (ESE)    
Max Wind Speed 18 mph    
Max Gust Speed 23 mph    
Visibility 10 miles    
Events Rain    
T = Trace of Precipitation, MM = Missing Value Source: NWS Daily Summary

Daily Weather History Graph

Daily Weather History Graph

Search for Another Location

Airport:

Trip Planner

Search our weather history database for the weather conditions in past years. The results will help you decide how hot, cold, wet, or windy it might be!

Date:

Astronomy

Oct. 22, 2012 Rise Set
Actual Time 7:19 AM MDT 5:50 PM MDT
Civil Twilight 6:48 AM MDT 6:21 PM MDT
Nautical Twilight 6:13 AM MDT 6:57 PM MDT
Astronomical Twilight 5:38 AM MDT 7:32 PM MDT
Moon 2:23 PM MDT (10/22) No Moon Set
Length of Visible Light 11h 33m
Length of Day
10h 31m
First Quarter, 57% of the Moon is Illuminated
Oct 22
First Quarter
Oct 29
Full
Nov 6
Last Quarter
Nov 13
New
Nov 20
First Quarter

Hourly Weather History & Observations

Time (MDT) Temp. Windchill Dew Point Humidity Pressure Visibility Wind Dir Wind Speed Gust Speed Precip Events Conditions
12:56 AM 41.0 °F 35.8 °F 32.0 °F 70% 30.07 in 10.0 mi ESE 8.1 mph - 0.00 in Rain Light Rain
1:26 AM 39.2 °F 32.5 °F 33.8 °F 81% 30.05 in 10.0 mi SE 10.4 mph - 0.01 in Rain Light Rain
1:56 AM 39.0 °F 31.4 °F 34.0 °F 82% 30.06 in 10.0 mi East 12.7 mph 17.3 mph 0.02 in Rain Light Rain
2:22 AM 37.4 °F 29.8 °F 33.8 °F 87% 30.03 in 10.0 mi ESE 11.5 mph - 0.01 in Rain Light Rain
3:56 AM 37.9 °F 30.9 °F 33.1 °F 83% 30.05 in 10.0 mi ESE 10.4 mph - 0.00 in Rain Light Rain
5:36 AM 35.6 °F 28.0 °F 33.8 °F 93% 30.01 in 5.0 mi East 10.4 mph - 0.04 in Rain Rain
5:56 AM 36.0 °F 28.0 °F 33.1 °F 89% 30.05 in 6.0 mi East 11.5 mph - 0.06 in Rain Rain
8:56 AM 37.9 °F 30.5 °F 35.1 °F 89% 30.05 in 10.0 mi ESE 11.5 mph - N/A   Overcast
9:56 AM 39.0 °F 30.6 °F 35.1 °F 86% 30.04 in 10.0 mi ESE 15.0 mph - 0.00 in   Overcast
10:56 AM 39.9 °F 31.8 °F 34.0 °F 79% 30.04 in 10.0 mi ESE 15.0 mph - N/A   Overcast
11:56 AM 39.9 °F 31.8 °F 32.0 °F 73% 30.03 in 10.0 mi ESE 15.0 mph - N/A   Overcast
12:56 PM 42.1 °F 33.6 °F 33.1 °F 70% 29.98 in 10.0 mi ESE 18.4 mph - N/A   Overcast
1:56 PM 43.0 °F 35.4 °F 33.1 °F 68% 29.94 in 10.0 mi ESE 16.1 mph - N/A   Overcast
2:56 PM 41.0 °F 33.9 °F 35.1 °F 79% 29.91 in 10.0 mi ESE 12.7 mph - 0.01 in Rain Light Rain
3:56 PM 42.1 °F 34.2 °F 33.1 °F 70% 29.90 in 10.0 mi East 16.1 mph - 0.00 in Rain Light Rain
4:39 PM 42.8 °F 36.2 °F 32.0 °F 66% 29.84 in 10.0 mi East 12.7 mph - 0.00 in   Overcast
5:56 PM 39.0 °F 31.4 °F 35.1 °F 86% 29.89 in 10.0 mi East 12.7 mph - 0.01 in Rain Light Rain
6:56 PM 37.9 °F 29.6 °F 36.0 °F 93% 29.86 in 10.0 mi East 13.8 mph - 0.02 in Rain Light Rain
7:56 PM 37.0 °F 26.7 °F 35.1 °F 93% 29.83 in 10.0 mi East 19.6 mph - 0.00 in   Overcast
8:06 PM 37.4 °F 27.8 °F 33.8 °F 87% 29.76 in 10.0 mi East 17.3 mph 24.2 mph N/A   Overcast
8:56 PM 37.0 °F 27.4 °F 34.0 °F 89% 29.78 in 10.0 mi East 17.3 mph 23.0 mph N/A   Mostly Cloudy
9:56 PM 37.0 °F 27.7 °F 34.0 °F 89% 29.77 in 10.0 mi East 16.1 mph - N/A   Overcast
10:40 PM 37.4 °F 28.9 °F 35.6 °F 93% 29.68 in 10.0 mi ESE 13.8 mph 23.0 mph 0.03 in Rain Light Rain
11:17 PM 37.4 °F 27.2 °F 35.6 °F 93% 29.66 in 10.0 mi ESE 19.6 mph 26.5 mph 0.00 in Rain Light Rain
11:56 PM 37.9 °F 31.5 °F 36.0 °F 93% 29.71 in 10.0 mi ESE 9.2 mph - 0.00 in   Overcast